Location: New Plymouth
(39.0670°S, 174.0830°E)
Time: 19:04:03
(UTC+13:00)

ISS - Pass Details

Date: 09 December 2023
Orbit: 414 x 422 km, 51.6° (Epoch: 26 February)

Event Time Altitude Azimuth Distance (km) Brightness Sun altitude
Exits shadow 01:22:28 - 249° (WSW) 2,269 0.2 -28.2°
Reaches altitude 10° 01:25:00 10° 224° (SW) 1,572 -0.4 -28.2°
Maximum altitude 01:26:47 13° 194° (SSW) 1,380 -0.3 -28.2°
Drops below altitude 10° 01:28:35 10° 163° (SSE) 1,566 0.0 -28.1°
Sets 01:31:37 0° 134° (SE) 2,429 0.8 -28.1°
